Terminal Aerodrome Forecast
Issued by NWS Atlanta, GA

Home | Current Version | Previous Version | Text Only | Print | Product List | Glossary On
Versions: 1 2 3 4 5 6 7 8 9 10 11 12 13 14 15 16 17 18 19 20 21 22 23 24 25 26 27 28 29 30 31 32 33 34 35 36 37
000
FTUS42 KFFC 280531
TAFATL
TAF
KATL 280531Z 2806/2912 12004KT P6SM FEW050
     FM281100 11004KT 6SM HZ SCT250
     FM281300 10006KT P6SM SCT250
     FM281800 11007KT P6SM FEW050 SCT250
     FM290000 09004KT P6SM SCT250=

USA.gov is the U.S. government's official web portal to all federal, state and local government web resources and services.